Location: Unspecified
(0.0000°N, 0.0000°E)
Time: 09:58:11
(UTC+00:00)

Vanguard 2 Rocket - Pass Details

Date: 16 December 2017
Orbit: 553 x 3328 km, 32.9° (Epoch: 24 June)

Event Time Altitude Azimuth Distance (km) Brightness Sun altitude
Rises 15:22:00 0° 247° (WSW) 3,038 10.6 34.8°
Reaches altitude 10° 15:24:00 10° 252° (WSW) 2,287 10.3 34.4°
Maximum altitude 15:29:09 55° 329° (NNW) 1,214 8.0 33.2°
Drops below altitude 10° 15:37:54 10° 45° (NE) 3,811 9.7 31.3°
Sets 15:42:12 0° 49° (NE) 5,280 10.3 30.4°
